Regional Weather Roundup
Issued by NWS Jackson, KY

Home | Current Version | Previous Version | Graphics & Text | Print | Product List | Glossary On
Versions: 1 2 3 4 5 6 7 8 9 10 11 12 13 14 15 16 17 18 19 20 21 22 23 24 25 26 27 28 29 30 31 32 33 34 35 36 37 38 39 40 41 42 43 44 45 46 47 48 49 50
000
ASUS43 KJKL 250919
RWRJKL

EAST KENTUCKY HOURLY WEATHER ROUNDUP
NATIONAL WEATHER SERVICE JACKSON KY
400 AM EST SUN JAN 25 2015

NOTE: "FAIR" INDICATES FEW OR NO CLOUDS BELOW 12,000 FEET WITH
NO SIGNIFICANT WEATHER AND/OR OBSTRUCTIONS TO VISIBILITY.

* THESE REPORTS ARE NOT UNDER NWS QUALITY CONTROL AND MAY NOT
  REPORT WEATHER SUCH AS PRECIPITATION AND FOG.

KYZ079-080-083-085-087-088-110-112-115-119-120-251000
...EASTERN KENTUCKY...

CITY           SKY/WX    TMP DP  RH WIND       PRES   REMARKS
JACKSON        PTCLDY    34  30  85 SW5       29.81F WCI  30
LONDON         PTCLDY    34  26  72 S5        29.84F WCI  30
SOMERSET*      CLOUDY    32  30  93 CALM      29.86F
MONTICELLO*    CLEAR     39  31  73 SW8       29.87F WCI  33
MIDDLESBORO*   PTCLDY    25  24  96 CALM      29.88F
HARLAN APT*    SUNNY     28  28 100 E3        29.86F
HAZARD APT*    SUNNY     36  30  80 SW6       29.83F WCI  31
BLACK MTN*       N/A     28  27  93 W2          N/A
PIKEVILLE APT* CLEAR     34  30  86 CALM      29.82F
BIG SANDY*     SUNNY     37  31  81 SW7       29.83S WCI  31
MOREHEAD APT*  MOSUNNY   36  30  80 S6        29.82F WCI  31
ASHLAND*       CLEAR    N/A N/A N/A CALM      29.80F
$$

KYZ035-036-041-042-044-050-067-078-099-251000
...CENTRAL KENTUCKY...

CITY           SKY/WX    TMP DP  RH WIND       PRES   REMARKS
MT STERLING*   CLOUDY    34  32  93 SW8       29.82S WCI  27
FLEMING/MASON* MOCLDY    32  30  92 SW9       29.80S WCI  25
DANVILLE*      CLOUDY    34  32  93 SW12      29.82S WCI  25
RICHMOND*      CLOUDY    36  30  80 S10       29.81S WCI  28
LEXINGTON      CLOUDY    35  30  82 S9        29.79F WCI  28
FRANKFORT      CLOUDY    36  30  79 S7        29.77F WCI  30
$$

KYZ091>093-OHZ055-061-077-WVZ005-015-034-035-042-251000
...SOUTHERN OHIO/WEST VIRGINIA...

CITY           SKY/WX    TMP DP  RH WIND       PRES   REMARKS
COVINGTON      CLOUDY    36  30  79 SW8       29.75F WCI  30
COLUMBUS       CLOUDY    34  29  82 S8        29.75F WCI  27
DAYTON         CLOUDY    35  30  82 S7        29.73F WCI  29
WILMINGTON     MOCLDY    32  28  85 S8        29.74F FOG     WCI  25
HUNTINGTON     PTCLDY    32  29  88 S6        29.81F WCI  26
CHARLESTON     MOCLDY    34  31  88 CALM      29.82F
PINEVILLE*     MOCLDY    32  32 100 MISG      29.88R FOG
BECKLEY        MOCLDY    29  26  89 W3        29.79S
BLUEFIELD      PTCLDY    31  27  85 W8        29.79S WCI  23
$$

VAZ002-007-008-TNZ017-027-036-066-071-251000
...SOUTHWEST VIRGINIA/EAST TENNESSEE...

CITY           SKY/WX    TMP DP  RH WIND       PRES   REMARKS
WISE*          CLEAR     32  27  80 SW6       29.82F WCI  26
JONESVILLE*    SUNNY     23  23 100 CALM      29.90F
ABINGDON*      CLEAR     31  28  86 W3        29.87R
BRISTOL        CLEAR     27  25  92 CALM      29.89S
KNOXVILLE      PTCLDY    32  27  81 SW8       29.91F WCI  25
OAK RIDGE        N/A     30  27  88 CALM      29.92F
CROSSVILLE     CLEAR     32  26  78 SW6       29.88S WCI  26
NASHVILLE      PTCLDY    36  30  79 S7        29.87S WCI  30
$$

...KEY TO REMARKS...
VSB - VISIBILITY IN MILES
WCI - WIND CHILL INDEX
HX  - HEAT INDEX

$$


USA.gov is the U.S. government's official web portal to all federal, state and local government web resources and services.